RH
47 43 33 24 20 18 19 18 15 14 14 12 11 11 12 14 12 7 6 9 10 10 12 15 17 17 19 24 24 22 22 42 89 94 100 100 73 83 99 99 44 21 73 55 16
55 53 42 29 21 19 20 20 17 14 13 13 11 11 11 12 14 13 8 6 7 9 10 14 19 18 19 22 21 22 21 25 96 85 73 98 88 100 100 68 16 41 76 25 26
58 54 52 40 24 22 21 21 20 16 12 12 12 11 10 10 12 14 12 10 7 7 9 10 14 20 18 19 18 33 22 41 82 100 100 100 70 94 91 17 20 62 29 54 34
56 54 50 42 29 23 22 22 21 20 17 13 11 11 11 10 11 11 14 13 11 9 7 7 9 11 14 17 14 15 16 21 32 47 63 42 38 29 20 13 11 27 26 8 12
41 40 36 34 31 24 23 22 22 22 20 17 11 10 10 10 11 10 11 12 13 12 12 8 8 8 8 8 9 9 10 12 12 12 13 11 13 11 10 11 12 41 12 9 10
32 30 29 27 26 25 23 22 22 23 22 21 16 11 10 8 11 10 10 11 12 12 13 13 9 9 10 10 7 8 7 7 7 7 7 10 8 8 15 10 12 22 38 10 10
29 29 30 28 26 24 22 22 22 22 21 20 19 14 11 8 11 10 11 11 10 11 12 12 12 12 10 11 9 9 10 9 8 8 11 10 10 12 9 8 13 21 44 12 8
20 20 20 20 20 22 22 20 20 20 20 20 19 16 12 10 12 10 10 12 11 10 11 12 12 12 13 10 10 10 11 10 9 9 9 10 10 9 9 10 13 23 63 62 10
18 17 16 16 16 14 14 14 14 15 17 17 18 17 14 12 11 13 12 12 11 11 10 10 12 13 12 12 11 13 12 11 10 9 9 9 12 11 11 12 10 56 89 94 39
36 32 29 26 22 18 16 16 14 13 11 11 14 15 15 12 11 11 11 9 12 10 10 12 13 13 14 16 15 11 12 10 9 10 10 10 11 12 10 12 10 71 54 100 93
39 34 30 28 25 24 22 20 19 18 12 11 13 14 15 12 12 11 12 11 10 11 12 12 12 15 19 16 13 10 10 11 11 11 12 11 12 19 12 11 12 36 46 87 100
24 26 26 23 21 20 17 16 16 18 24 18 15 18 16 14 14 13 12 13 12 11 12 10 15 21 15 15 15 14 12 13 12 13 13 14 12 14 13 12 13 13 65 87 98
16 15 15 14 14 15 16 15 14 14 15 14 18 26 27 17 28 26 16 15 14 13 10 12 26 11 11 12 15 17 16 15 14 11 14 12 12 13 13 11 11 11 17 95 90
23 21 20 19 15 13 10 10 10 10 14 13 12 12 20 21 21 22 22 18 18 16 13 11 16 12 12 13 16 18 20 17 14 12 12 12 11 12 15 13 14 12 15 74 88
26 24 23 21 19 17 15 10 8 7 9 9 10 12 13 14 16 21 18 16 15 19 16 17 18 16 17 20 19 20 18 18 16 13 12 11 11 14 15 16 18 16 16 15 81
27 27 25 22 21 17 13 12 11 10 9 8 8 8 10 10 14 19 15 16 22 22 19 18 17 15 17 18 17 19 17 17 15 12 11 12 13 13 18 21 20 18 16 16 15
28 25 23 21 18 14 12 13 12 9 10 10 12 13 9 7 9 12 17 18 18 16 20 24 19 16 17 16 16 17 16 15 13 12 12 17 15 20 20 22 20 20 17 16 17
30 27 22 16 12 9 7 6 6 5 7 7 9 10 11 10 8 8 11 13 15 15 16 20 25 25 19 17 17 19 18 18 21 21 24 24 15 24 21 20 21 20 14 15 16
28 17 10 8 6 6 5 4 3 3 3 3 3 6 8 10 10 9 8 11 11 13 13 15 20 24 23 28 24 24 19 28 26 22 25 18 22 19 14 14 16 19 13 13 18
16 10 10 6 5 5 5 4 3 3 2 2 2 2 6 8 10 10 10 8 10 10 11 13 17 25 26 26 24 26 29 26 26 23 20 23 28 24 15 14 20 16 10 13 15
12 10 8 7 7 6 6 4 4 3 2 2 2 2 2 5 8 10 10 9 8 10 11 12 16 28 30 24 28 23 21 20 23 25 26 29 29 22 14 16 19 11 10 10 9
13 9 12 11 9 6 4 4 4 3 3 2 2 2 2 3 5 10 10 9 8 9 11 12 14 20 26 38 30 25 27 24 22 27 30 30 26 21 16 27 16 13 10 10 10
16 13 15 15 19 13 6 4 3 3 3 2 2 2 2 2 3 4 9 9 8 8 10 13 12 18 21 28 28 26 26 27 28 25 25 35 33 26 21 27 19 19 18 10 10
14 21 20 31 32 31 17 6 3 3 2 2 2 2 2 2 2 2 6 8 8 7 9 10 11 16 17 21 24 27 25 29 30 26 32 32 34 24 32 37 24 21 19 12 9
19 22 47 54 44 26 18 9 4 2 2 2 2 2 2 1 2 2 3 8 10 7 6 9 12 14 16 17 18 26 27 22 25 41 35 43 37 38 40 34 24 22 17 13 10
27 30 52 56 56 46 27 11 6 2 2 2 2 2 2 2 2 2 2 5 10 8 7 10 11 15 18 20 19 22 25 30 25 44 44 41 38 37 32 28 25 22 16 12 12
34 62 73 71 66 56 43 15 6 4 2 2 2 2 1 2 2 2 2 3 7 8 8 10 14 17 19 17 18 25 28 33 36 45 44 40 37 34 32 28 28 24 15 11 12
Wind_Speed
41 41 39 37 36 34 33 32 30 23 20 20 17 15 14 13 12 17 32 44 43 43 43 39 36 33 32 31 30 29 26 24 22 20 16 17 25 33 38 36 38 41 32 36 35
44 44 43 42 40 38 37 36 35 30 25 24 24 21 22 19 17 15 21 30 41 44 45 43 43 39 37 35 35 32 33 30 19 28 33 26 26 30 34 41 43 39 40 36 33
47 47 47 46 45 44 42 41 40 36 31 28 27 28 27 27 23 23 21 23 30 38 44 43 44 44 42 41 40 37 37 36 35 26 33 33 34 38 44 46 44 36 41 28 25
51 51 51 50 50 49 48 47 46 42 38 34 33 32 34 33 29 31 28 26 26 28 33 39 44 44 44 45 44 43 44 43 41 40 41 44 41 47 48 49 42 35 23 18 15
52 53 53 53 54 54 54 53 51 48 45 40 38 38 38 38 34 37 34 34 32 30 29 33 37 38 42 41 44 45 44 44 45 47 45 43 47 48 44 35 27 18 17 15 13
56 57 57 58 58 59 58 57 55 54 51 47 43 42 44 41 39 42 42 40 39 37 35 34 34 30 28 32 36 31 31 33 34 36 39 41 40 34 23 22 22 16 15 16 14
59 60 61 62 62 63 63 62 60 59 57 53 49 48 49 42 43 49 45 46 46 44 43 40 34 32 32 31 31 28 25 25 24 22 18 20 22 18 21 19 20 17 16 18 15
63 64 65 65 66 66 66 65 64 63 62 59 55 54 57 48 49 52 48 49 51 49 47 46 42 39 35 37 30 29 24 28 26 25 23 19 26 19 21 16 16 15 11 14 15
67 68 69 69 69 70 70 69 69 67 66 63 60 60 63 57 53 53 54 52 54 54 53 51 47 47 41 40 36 30 33 33 29 28 29 24 25 22 21 18 17 17 12 16 13
73 75 77 77 77 78 77 75 73 73 72 68 65 65 66 67 61 60 61 58 58 58 55 54 52 49 45 41 42 45 39 37 32 32 30 27 24 24 22 20 18 14 10 11 11
79 80 82 83 84 85 87 85 82 80 83 76 73 71 73 72 69 66 66 64 60 58 60 60 55 51 55 52 53 48 45 39 34 32 31 30 24 25 25 23 18 18 16 17 16
84 87 90 90 91 91 92 92 91 89 91 87 82 79 81 73 72 73 69 67 66 65 66 60 55 62 60 56 53 49 47 41 41 35 35 32 31 29 26 25 22 22 20 19 13
85 89 92 96 97 98 97 96 95 95 96 97 94 91 88 82 78 81 77 76 70 71 67 65 69 70 66 62 56 49 47 48 49 45 40 38 34 30 30 27 28 27 22 21 15
91 92 92 98 97 99 101 101 100 101 100 98 97 98 97 94 91 93 88 84 78 73 72 70 76 70 67 63 57 51 51 52 54 49 45 44 39 34 32 28 31 29 27 24 21
81 82 87 89 98 104 106 104 100 98 99 99 102 101 99 97 97 100 95 90 83 80 77 67 76 75 69 63 63 59 58 55 58 53 53 46 41 36 34 31 34 35 33 30 30
74 82 88 91 94 94 90 88 92 98 100 93 96 97 103 102 99 102 101 93 92 89 82 79 82 77 72 76 70 71 65 62 61 56 51 46 40 40 35 39 42 39 35 33 31
72 78 84 89 93 92 88 91 91 87 86 83 86 91 98 98 102 107 104 99 99 96 85 87 84 81 80 79 74 74 70 67 64 56 45 47 42 47 44 44 45 38 37 35 33
74 76 83 84 83 81 82 80 81 78 78 77 83 88 94 97 102 103 106 107 101 97 96 92 92 83 82 81 78 75 71 65 59 55 51 49 41 55 53 48 47 41 39 37 36
78 75 72 71 68 65 68 68 67 67 68 69 76 80 87 94 100 103 101 105 108 107 101 96 90 93 90 83 83 79 69 68 66 62 59 52 53 55 55 50 43 41 36 39 38
75 65 60 58 54 53 56 58 61 60 61 60 72 74 83 89 98 100 104 105 107 107 103 99 92 92 88 92 89 75 76 73 66 63 57 57 55 53 53 48 41 35 31 44 44
69 59 52 49 46 44 48 50 53 54 55 54 60 66 72 85 93 102 105 105 108 104 102 103 95 93 100 94 80 79 76 72 71 67 58 59 56 57 49 46 39 34 34 43 46
67 53 50 47 46 43 40 40 42 48 49 51 51 53 67 76 88 96 106 106 107 105 101 104 97 102 93 82 82 87 83 80 73 64 59 61 63 57 49 44 40 37 34 39 47
64 54 47 41 42 43 41 40 35 39 41 46 48 49 58 68 83 91 102 106 108 107 104 100 101 102 94 93 91 86 76 72 69 70 66 66 61 55 51 48 47 43 40 40 46
53 48 39 37 38 38 41 40 37 30 35 38 41 45 49 63 75 83 98 102 107 107 107 103 98 102 100 96 91 81 74 69 68 68 65 62 66 55 54 53 51 50 45 43 44
48 38 31 34 42 39 38 36 35 28 27 29 35 40 43 52 66 75 84 94 102 104 107 100 95 99 100 95 88 79 73 70 65 60 60 68 62 56 57 56 52 50 46 44 43
40 33 32 32 37 40 40 35 32 24 24 21 28 33 37 43 56 69 81 94 103 102 104 99 98 91 91 93 87 83 79 74 66 65 68 70 64 60 58 57 52 51 48 44 43
32 30 29 35 37 39 39 33 29 26 18 17 20 26 32 38 51 60 74 89 100 99 103 101 96 90 91 95 95 89 88 81 75 76 76 74 70 65 63 60 55 53 46 42 41
Wind_Direction
252 254 257 255 256 258 260 262 260 255 248 246 240 233 228 215 222 208 216 213 214 218 220 219 218 222 222 224 228 228 227 222 216 228 190 225 245 248 261 272 300 304 309 311 309
255 257 257 256 255 256 258 260 260 256 247 242 244 237 230 224 217 220 214 218 220 221 222 221 220 221 223 223 227 232 236 238 228 229 232 230 232 245 278 299 303 303 305 307 305
257 258 259 258 255 257 257 258 258 257 250 248 243 242 237 228 223 220 224 217 220 223 223 223 224 225 227 226 228 234 234 242 234 223 226 249 238 260 284 294 296 301 307 304 306
259 259 259 258 256 255 257 258 259 258 257 251 247 245 242 234 230 227 226 224 220 221 223 227 227 229 230 233 234 237 237 240 247 248 248 259 259 270 280 285 295 305 311 324 324
260 260 260 259 257 256 257 258 259 260 258 254 250 248 245 237 243 235 228 228 224 221 221 222 226 228 232 238 239 240 241 244 247 250 256 261 265 269 278 285 298 287 304 319 322
261 260 260 260 259 258 256 256 257 257 257 257 252 248 247 240 243 236 236 232 229 224 222 224 219 222 219 227 235 234 240 243 248 253 256 257 261 267 273 284 279 279 301 309 325
264 264 263 261 260 259 258 257 256 256 257 255 253 251 248 240 243 240 237 237 233 230 227 225 227 225 223 224 226 221 229 235 240 245 250 253 259 260 264 272 278 287 315 336 329
266 265 264 263 263 261 259 258 256 255 255 255 251 248 249 241 242 239 235 241 239 234 231 230 227 230 231 231 228 232 228 235 229 239 237 238 257 252 259 272 282 291 298 335 332
266 265 264 262 261 260 259 257 256 254 253 251 250 250 249 245 240 244 241 236 240 239 236 233 232 231 233 235 232 235 235 232 232 233 241 241 249 260 265 272 274 289 275 306 336
267 266 265 264 262 262 259 257 255 255 253 248 248 247 248 247 241 240 240 233 236 237 238 237 236 235 233 235 234 231 233 237 233 237 243 244 250 258 266 269 280 270 280 307 312
269 268 266 265 263 262 261 259 257 256 255 251 247 246 245 245 246 241 241 240 235 238 236 236 236 236 233 232 234 236 238 240 241 246 249 248 251 250 264 267 278 272 273 268 288
270 269 268 266 265 264 262 260 259 256 256 253 251 249 248 246 248 246 243 242 240 234 235 233 235 235 235 236 237 236 240 243 242 245 247 247 242 246 256 269 268 271 267 255 265
272 271 270 269 267 265 263 261 258 257 255 255 251 248 249 246 244 245 242 241 238 238 235 231 233 233 234 236 239 238 238 241 242 239 244 247 248 248 248 260 265 264 263 251 258
276 275 273 273 270 268 266 263 260 257 254 252 253 249 246 247 244 244 242 238 236 236 233 231 235 235 234 235 237 240 237 240 243 243 246 246 249 246 253 256 266 266 265 237 233
283 281 280 278 275 269 266 264 263 260 256 252 251 249 248 244 244 245 245 245 241 237 236 230 232 233 232 234 233 234 235 236 240 241 244 249 250 246 248 253 253 259 257 251 225
285 280 278 279 278 277 273 270 266 261 258 253 251 249 247 244 241 242 242 240 237 238 238 234 234 231 231 233 231 234 234 236 240 239 242 248 248 248 241 243 244 252 254 255 254
295 289 285 283 281 279 279 276 273 266 260 252 248 247 245 242 238 238 239 236 236 234 231 232 236 233 231 233 233 237 237 238 241 242 245 242 242 251 241 237 245 246 251 250 248
302 298 292 289 286 284 278 275 271 266 261 253 249 244 238 236 236 234 233 235 234 233 230 229 230 233 233 233 234 235 236 237 237 236 230 231 235 240 240 237 243 246 245 245 244
308 304 300 293 288 285 281 277 273 268 262 253 246 236 232 229 230 230 229 231 230 231 229 228 227 229 229 230 233 235 237 233 232 234 233 235 237 245 250 249 248 250 249 241 231
314 312 306 298 293 288 282 278 275 270 265 251 246 234 225 224 224 226 227 224 228 227 228 228 224 230 230 229 229 228 229 232 234 235 234 235 238 243 248 250 245 234 230 232 228
321 320 311 305 301 293 287 280 274 271 265 257 244 239 230 224 221 222 224 223 223 223 223 226 222 226 227 229 230 230 233 233 231 229 227 231 232 235 240 240 240 233 216 228 233
326 325 318 312 305 300 292 285 276 271 265 259 247 234 230 226 223 219 221 221 220 219 219 221 218 223 227 227 229 228 225 227 229 230 230 231 231 233 232 230 232 233 219 225 233
328 326 320 319 320 315 305 297 281 271 262 258 252 239 229 222 223 220 220 218 217 216 216 216 217 219 220 223 224 227 229 228 226 227 227 227 230 231 231 228 227 229 230 221 231
330 325 328 333 332 327 319 313 302 284 269 258 251 245 229 221 221 219 217 217 216 214 213 213 213 218 219 220 221 222 224 226 229 229 228 228 230 230 225 226 226 229 227 226 227
330 330 343 341 336 334 330 323 312 299 273 256 252 245 237 220 217 218 215 215 216 212 213 209 210 214 217 220 222 221 221 224 223 226 227 227 228 227 225 222 222 228 230 226 225
331 339 346 347 345 343 340 335 325 311 293 264 251 244 236 222 216 214 212 211 212 208 209 206 209 210 213 216 217 219 219 221 221 217 223 227 225 223 221 222 222 226 228 225 223
334 351 355 354 353 353 347 343 333 321 307 281 256 242 233 219 213 212 210 210 210 208 204 203 205 206 210 213 212 213 215 214 215 216 219 224 223 223 222 224 225 228 227 225 223